{"data":{"norad_id":67936,"intl_designator":"2026-037E","name":"STARLINK-36848","alt_names":[],"object_type":"PAYLOAD","status":"ACTIVE","operator":null,"country":"US","launch_date":"2026-02-24","launch_site_code":"AFETR","launch_vehicle":null,"mission":null,"orbit_class":"UNKNOWN","rcs_meters":null,"size_class":null,"mass_kg":null,"dimensions":null,"purposes":["comms"],"wikipedia_slug":null,"has_3d_model":false,"image_url":null,"decayed_at":null,"tle_current":{"epoch":"2026-09-19T04:48:19.713888Z","epoch_age_seconds":175550,"freshness":"STALE","line1":"1 67936U 26037E   26262.20022817  .00016136  00000+0  59411-3 0  9998","line2":"2 67936  42.9975 178.0681 0001073 260.9688  99.1042 15.27607501 32936","mean_motion":15.27607501,"eccentricity":0.0001073,"inclination_deg":42.9975,"raan_deg":178.0681,"arg_perigee_deg":260.9688,"mean_anomaly_deg":99.1042,"bstar":0.00059411,"rev_number":3293,"period_min":94.26505166133,"perigee_km":482.23055295531,"apogee_km":483.70294581993,"semimajor_km":6861.1037493876,"source":"CELESTRAK","updated_at":"2026-09-20T09:00:43.707376Z"}}}